Multibeam Report for NF-07-04-PMEL


Ship Name: Nancy Foster
Chief Scientist: ten Brink, Uri
US Geological Survey
Source Organization: US Geological Survey (USGS)
Start Date: 2007-03-09
End Date: 2007-03-25


View ISO Metadata

Visit the full NCEI Bathymetry Viewer


Multibeam Bathymetry

Cruise Details

Project: Tsunami Source Potential in Northeast Caribbean
Instrument: Simrad EM1002

Data Quality

Number of Files: 360
Number of Records: 606945
BATHYMETRY DATA Quantity Percentage
Number of Beams 67370895 100%
Number of Good Beams 64822370 96.22%
Number of Zero Beams 2548525 3.78%
Number of Flagged Beams 0 0%

Navigation Totals

Total Time: 263.1855 hours
Total Track Length: 4712.2621 km
Average Speed: 17.905 km/hr (9.6679 knots)

Cruise Bounds

Northern Extent: 18.611229
Southern Extent: 17.978119
Western Extent: -68.25308
Eastern Extent: -66.45831

Limits

Minimum Sonar Depth 1.49 Maximum Sonar Depth 8.55
Minimum Altitude 0 Maximum Altitude 1083.6801
Minimum Depth 16.22 Maximum Depth 1221.8199

File Information

Full Resolution Bathymetry as collected (raw): 353

Files File Size Description
0001_20070314_153212_raw.all.mb56.gz 11.62MB Simrad multibeam vendor format
0001_20070319_013722_raw.all.mb56.gz 17.8KB Simrad multibeam vendor format
0002_20070314_160213_raw.all.mb56.gz 21.73MB Simrad multibeam vendor format
0002_20070319_013743_raw.all.mb56.gz 48.3KB Simrad multibeam vendor format
0003_20070314_171208_raw.all.mb56.gz 24.74MB Simrad multibeam vendor format
0004_20070314_181208_raw.all.mb56.gz 22.60MB Simrad multibeam vendor format
0005_20070314_191209_raw.all.mb56.gz 54.20MB Simrad multibeam vendor format
0006_20070314_201209_raw.all.mb56.gz 4.41MB Simrad multibeam vendor format
0007_20070314_201845_raw.all.mb56.gz 20.52MB Simrad multibeam vendor format
0008_20070314_210557_raw.all.mb56.gz 25.86MB Simrad multibeam vendor format
0009_20070314_220823_raw.all.mb56.gz 22.88MB Simrad multibeam vendor format
0010_20070314_230824_raw.all.mb56.gz 17.44MB Simrad multibeam vendor format
0011_20070314_235501_raw.all.mb56.gz 19.32MB Simrad multibeam vendor format
0012_20070315_005501_raw.all.mb56.gz 13.66MB Simrad multibeam vendor format
0013_20070315_014237_raw.all.mb56.gz 1.14MB Simrad multibeam vendor format
0014_20070315_014637_raw.all.mb56.gz 0.82MB Simrad multibeam vendor format
0015_20070315_020724_raw.all.mb56.gz 17.58MB Simrad multibeam vendor format
0016_20070315_030725_raw.all.mb56.gz 11.49MB Simrad multibeam vendor format
0017_20070315_040142_raw.all.mb56.gz 1.39MB Simrad multibeam vendor format
0018_20070315_041240_raw.all.mb56.gz 12.78MB Simrad multibeam vendor format
0019_20070315_051240_raw.all.mb56.gz 9.39MB Simrad multibeam vendor format
0020_20070315_054917_raw.all.mb56.gz 14.48MB Simrad multibeam vendor format
0021_20070315_064047_raw.all.mb56.gz 12.89MB Simrad multibeam vendor format
0022_20070315_072630_raw.all.mb56.gz 12.40MB Simrad multibeam vendor format
0023_20070315_082630_raw.all.mb56.gz 3.93MB Simrad multibeam vendor format
0024_20070315_084642_raw.all.mb56.gz 0.95MB Simrad multibeam vendor format
0025_20070315_090337_raw.all.mb56.gz 9.91MB Simrad multibeam vendor format
0026_20070315_100337_raw.all.mb56.gz 2.60MB Simrad multibeam vendor format
0027_20070315_101422_raw.all.mb56.gz 6.66MB Simrad multibeam vendor format
0028_20070315_104313_raw.all.mb56.gz 26.4KB Simrad multibeam vendor format
0029_20070315_104720_raw.all.mb56.gz 4.86MB Simrad multibeam vendor format
0030_20070315_111239_raw.all.mb56.gz 4.36MB Simrad multibeam vendor format
0031_20070315_122817_raw.all.mb56.gz 32.02MB Simrad multibeam vendor format
0032_20070315_132817_raw.all.mb56.gz 32.04MB Simrad multibeam vendor format
0033_20070315_142818_raw.all.mb56.gz 22.62MB Simrad multibeam vendor format
0034_20070315_152039_raw.all.mb56.gz 22.92MB Simrad multibeam vendor format
0035_20070315_160421_raw.all.mb56.gz 14.82MB Simrad multibeam vendor format
0036_20070315_163348_raw.all.mb56.gz 24.52MB Simrad multibeam vendor format
0037_20070315_173348_raw.all.mb56.gz 8.55MB Simrad multibeam vendor format
0038_20070315_175114_raw.all.mb56.gz 24.06MB Simrad multibeam vendor format
0039_20070315_185115_raw.all.mb56.gz 7.36MB Simrad multibeam vendor format
0040_20070315_190517_raw.all.mb56.gz 27.69MB Simrad multibeam vendor format
0041_20070315_200442_raw.all.mb56.gz 18.05MB Simrad multibeam vendor format
0042_20070315_210443_raw.all.mb56.gz 4.10MB Simrad multibeam vendor format
0043_20070315_211504_raw.all.mb56.gz 8.02MB Simrad multibeam vendor format
0044_20070315_213346_raw.all.mb56.gz 13.77MB Simrad multibeam vendor format
0045_20070315_223346_raw.all.mb56.gz 3.11MB Simrad multibeam vendor format
0046_20070315_225931_raw.all.mb56.gz 14.34MB Simrad multibeam vendor format
0047_20070315_235931_raw.all.mb56.gz 4.55MB Simrad multibeam vendor format
0048_20070316_001910_raw.all.mb56.gz 20.68MB Simrad multibeam vendor format
0049_20070316_011253_raw.all.mb56.gz 20.86MB Simrad multibeam vendor format
0050_20070316_021254_raw.all.mb56.gz 7.01MB Simrad multibeam vendor format
0051_20070316_024109_raw.all.mb56.gz 17.37MB Simrad multibeam vendor format
0052_20070316_034109_raw.all.mb56.gz 8.13MB Simrad multibeam vendor format
0053_20070316_041135_raw.all.mb56.gz 17.25MB Simrad multibeam vendor format
0054_20070316_051136_raw.all.mb56.gz 9.78MB Simrad multibeam vendor format
0055_20070316_055133_raw.all.mb56.gz 15.57MB Simrad multibeam vendor format
0056_20070316_065133_raw.all.mb56.gz 11.14MB Simrad multibeam vendor format
0057_20070316_073656_raw.all.mb56.gz 1.74MB Simrad multibeam vendor format
0058_20070316_074703_raw.all.mb56.gz 17.78MB Simrad multibeam vendor format
0059_20070316_084703_raw.all.mb56.gz 10.94MB Simrad multibeam vendor format
0060_20070316_093626_raw.all.mb56.gz 13.78MB Simrad multibeam vendor format
0061_20070316_103626_raw.all.mb56.gz 10.87MB Simrad multibeam vendor format
0062_20070316_112735_raw.all.mb56.gz 7.29MB Simrad multibeam vendor format
0063_20070316_115354_raw.all.mb56.gz 12.35MB Simrad multibeam vendor format
0064_20070316_125147_raw.all.mb56.gz 13.05MB Simrad multibeam vendor format
0065_20070316_135148_raw.all.mb56.gz 4.76MB Simrad multibeam vendor format
0066_20070316_141243_raw.all.mb56.gz 14.33MB Simrad multibeam vendor format
0067_20070316_151243_raw.all.mb56.gz 3.41MB Simrad multibeam vendor format
0068_20070316_153335_raw.all.mb56.gz 11.74MB Simrad multibeam vendor format
0069_20070316_163335_raw.all.mb56.gz 7.59MB Simrad multibeam vendor format
0070_20070316_170948_raw.all.mb56.gz 13.47MB Simrad multibeam vendor format
0071_20070316_180949_raw.all.mb56.gz 5.87MB Simrad multibeam vendor format
0072_20070316_184211_raw.all.mb56.gz 13.70MB Simrad multibeam vendor format
0073_20070316_194211_raw.all.mb56.gz 6.53MB Simrad multibeam vendor format
0074_20070316_201609_raw.all.mb56.gz 13.23MB Simrad multibeam vendor format
0075_20070316_211610_raw.all.mb56.gz 3.12MB Simrad multibeam vendor format
0076_20070316_214946_raw.all.mb56.gz 25.13MB Simrad multibeam vendor format
0077_20070316_225336_raw.all.mb56.gz 6.98MB Simrad multibeam vendor format
0078_20070316_232131_raw.all.mb56.gz 6.45MB Simrad multibeam vendor format
0079_20070316_235551_raw.all.mb56.gz 8.20MB Simrad multibeam vendor format
0080_20070317_003459_raw.all.mb56.gz 16.38MB Simrad multibeam vendor format
0081_20070317_013500_raw.all.mb56.gz 8.72MB Simrad multibeam vendor format
0082_20070317_015807_raw.all.mb56.gz 1.09MB Simrad multibeam vendor format
0083_20070317_020200_raw.all.mb56.gz 24.38MB Simrad multibeam vendor format
0084_20070317_030201_raw.all.mb56.gz 7.54MB Simrad multibeam vendor format
0085_20070317_032520_raw.all.mb56.gz 30.76MB Simrad multibeam vendor format
0086_20070317_042520_raw.all.mb56.gz 9.14MB Simrad multibeam vendor format
0087_20070317_045057_raw.all.mb56.gz 29.38MB Simrad multibeam vendor format
0088_20070317_055057_raw.all.mb56.gz 12.15MB Simrad multibeam vendor format
0089_20070317_062410_raw.all.mb56.gz 26.55MB Simrad multibeam vendor format
0090_20070317_072410_raw.all.mb56.gz 8.89MB Simrad multibeam vendor format
0091_20070317_074930_raw.all.mb56.gz 24.75MB Simrad multibeam vendor format
0092_20070317_084931_raw.all.mb56.gz 9.83MB Simrad multibeam vendor format
0093_20070317_092302_raw.all.mb56.gz 15.06MB Simrad multibeam vendor format
0094_20070317_102302_raw.all.mb56.gz 16.55MB Simrad multibeam vendor format
0095_20070317_112302_raw.all.mb56.gz 16.88MB Simrad multibeam vendor format
0096_20070317_122303_raw.all.mb56.gz 5.18MB Simrad multibeam vendor format
0097_20070317_124551_raw.all.mb56.gz 19.89MB Simrad multibeam vendor format
0098_20070317_134551_raw.all.mb56.gz 5.80MB Simrad multibeam vendor format
0099_20070317_140249_raw.all.mb56.gz 10.22MB Simrad multibeam vendor format
0100_20070317_144321_raw.all.mb56.gz 9.61MB Simrad multibeam vendor format
0101_20070317_151352_raw.all.mb56.gz 28.85MB Simrad multibeam vendor format
0102_20070317_161353_raw.all.mb56.gz 3.75MB Simrad multibeam vendor format
0103_20070317_162030_raw.all.mb56.gz 6.73MB Simrad multibeam vendor format
0104_20070317_163145_raw.all.mb56.gz 21.97MB Simrad multibeam vendor format
0105_20070317_173146_raw.all.mb56.gz 18.54MB Simrad multibeam vendor format
0106_20070317_183146_raw.all.mb56.gz 21.88MB Simrad multibeam vendor format
0107_20070317_193147_raw.all.mb56.gz 12.20MB Simrad multibeam vendor format
0108_20070317_201432_raw.all.mb56.gz 21.53MB Simrad multibeam vendor format
0109_20070317_211433_raw.all.mb56.gz 20.62MB Simrad multibeam vendor format
0110_20070317_221433_raw.all.mb56.gz 16.63MB Simrad multibeam vendor format
0111_20070317_231433_raw.all.mb56.gz 33.85MB Simrad multibeam vendor format
0112_20070318_001434_raw.all.mb56.gz 19.53MB Simrad multibeam vendor format
0113_20070318_005759_raw.all.mb56.gz 31.49MB Simrad multibeam vendor format
0114_20070318_015800_raw.all.mb56.gz 25.16MB Simrad multibeam vendor format
0115_20070318_025800_raw.all.mb56.gz 19.95MB Simrad multibeam vendor format
0116_20070318_035801_raw.all.mb56.gz 22.28MB Simrad multibeam vendor format
0117_20070318_045801_raw.all.mb56.gz 17.05MB Simrad multibeam vendor format
0118_20070318_054317_raw.all.mb56.gz 21.51MB Simrad multibeam vendor format
0119_20070318_064318_raw.all.mb56.gz 21.15MB Simrad multibeam vendor format
0120_20070318_074318_raw.all.mb56.gz 17.08MB Simrad multibeam vendor format
0121_20070318_084319_raw.all.mb56.gz 27.39MB Simrad multibeam vendor format
0122_20070318_094319_raw.all.mb56.gz 18.17MB Simrad multibeam vendor format
0123_20070318_103646_raw.all.mb56.gz 25.62MB Simrad multibeam vendor format
0124_20070318_113647_raw.all.mb56.gz 24.49MB Simrad multibeam vendor format
0125_20070318_123646_raw.all.mb56.gz 17.29MB Simrad multibeam vendor format
0126_20070318_133647_raw.all.mb56.gz 1.83MB Simrad multibeam vendor format
0127_20070318_134215_raw.all.mb56.gz 440.4KB Simrad multibeam vendor format
0128_20070318_134347_raw.all.mb56.gz 20.10MB Simrad multibeam vendor format
0129_20070318_144347_raw.all.mb56.gz 13.57MB Simrad multibeam vendor format
0130_20070318_153616_raw.all.mb56.gz 19.00MB Simrad multibeam vendor format
0131_20070318_163616_raw.all.mb56.gz 17.87MB Simrad multibeam vendor format
0132_20070318_173617_raw.all.mb56.gz 19.18MB Simrad multibeam vendor format
0133_20070318_183617_raw.all.mb56.gz 17.03MB Simrad multibeam vendor format
0134_20070318_193618_raw.all.mb56.gz 21.29MB Simrad multibeam vendor format
0135_20070318_203618_raw.all.mb56.gz 20.06MB Simrad multibeam vendor format
0136_20070318_213325_raw.all.mb56.gz 25.23MB Simrad multibeam vendor format
0137_20070318_223326_raw.all.mb56.gz 20.62MB Simrad multibeam vendor format
0138_20070318_233326_raw.all.mb56.gz 17.39MB Simrad multibeam vendor format
0139_20070319_003326_raw.all.mb56.gz 10.70MB Simrad multibeam vendor format
0140_20070319_013811_raw.all.mb56.gz 15.38MB Simrad multibeam vendor format
0141_20070319_024111_raw.all.mb56.gz 16.48MB Simrad multibeam vendor format
0142_20070319_034112_raw.all.mb56.gz 18.88MB Simrad multibeam vendor format
0143_20070319_044112_raw.all.mb56.gz 17.60MB Simrad multibeam vendor format
0144_20070319_054113_raw.all.mb56.gz 25.23MB Simrad multibeam vendor format
0145_20070319_064113_raw.all.mb56.gz 7.94MB Simrad multibeam vendor format
0146_20070319_070722_raw.all.mb56.gz 23.62MB Simrad multibeam vendor format
0147_20070319_080722_raw.all.mb56.gz 4.81MB Simrad multibeam vendor format
0148_20070319_081856_raw.all.mb56.gz 18.38MB Simrad multibeam vendor format
0149_20070319_091856_raw.all.mb56.gz 18.25MB Simrad multibeam vendor format
0150_20070319_101857_raw.all.mb56.gz 16.22MB Simrad multibeam vendor format
0151_20070319_111857_raw.all.mb56.gz 4.06MB Simrad multibeam vendor format
0152_20070319_114048_raw.all.mb56.gz 15.85MB Simrad multibeam vendor format
0153_20070319_124048_raw.all.mb56.gz 17.64MB Simrad multibeam vendor format
0154_20070319_134049_raw.all.mb56.gz 17.33MB Simrad multibeam vendor format
0155_20070319_144049_raw.all.mb56.gz 3.64MB Simrad multibeam vendor format
0156_20070319_145233_raw.all.mb56.gz 0.58MB Simrad multibeam vendor format
0157_20070319_145424_raw.all.mb56.gz 495.2KB Simrad multibeam vendor format
0158_20070319_145554_raw.all.mb56.gz 336.8KB Simrad multibeam vendor format
0159_20070319_145658_raw.all.mb56.gz 25.25MB Simrad multibeam vendor format
0160_20070319_155658_raw.all.mb56.gz 9.61MB Simrad multibeam vendor format
0161_20070319_162339_raw.all.mb56.gz 22.15MB Simrad multibeam vendor format
0162_20070319_172340_raw.all.mb56.gz 19.39MB Simrad multibeam vendor format
0163_20070319_182340_raw.all.mb56.gz 17.31MB Simrad multibeam vendor format
0164_20070319_192341_raw.all.mb56.gz 16.75MB Simrad multibeam vendor format
0165_20070319_202341_raw.all.mb56.gz 10.56MB Simrad multibeam vendor format
0166_20070319_211417_raw.all.mb56.gz 13.55MB Simrad multibeam vendor format
0167_20070319_221418_raw.all.mb56.gz 16.66MB Simrad multibeam vendor format
0168_20070319_231418_raw.all.mb56.gz 16.87MB Simrad multibeam vendor format
0169_20070320_001418_raw.all.mb56.gz 20.34MB Simrad multibeam vendor format
0170_20070320_011419_raw.all.mb56.gz 12.56MB Simrad multibeam vendor format
0171_20070320_015415_raw.all.mb56.gz 20.86MB Simrad multibeam vendor format
0172_20070320_025415_raw.all.mb56.gz 18.63MB Simrad multibeam vendor format
0173_20070320_035415_raw.all.mb56.gz 16.54MB Simrad multibeam vendor format
0174_20070320_045416_raw.all.mb56.gz 15.76MB Simrad multibeam vendor format
0175_20070320_055416_raw.all.mb56.gz 0.77MB Simrad multibeam vendor format
0176_20070320_060227_raw.all.mb56.gz 15.40MB Simrad multibeam vendor format
0177_20070320_070227_raw.all.mb56.gz 16.16MB Simrad multibeam vendor format
0178_20070320_080227_raw.all.mb56.gz 17.78MB Simrad multibeam vendor format
0179_20070320_090228_raw.all.mb56.gz 20.10MB Simrad multibeam vendor format
0180_20070320_100228_raw.all.mb56.gz 3.64MB Simrad multibeam vendor format
0181_20070320_102221_raw.all.mb56.gz 20.10MB Simrad multibeam vendor format
0182_20070320_112221_raw.all.mb56.gz 17.96MB Simrad multibeam vendor format
0183_20070320_122222_raw.all.mb56.gz 4.21MB Simrad multibeam vendor format
0184_20070320_123827_raw.all.mb56.gz 193.1KB Simrad multibeam vendor format
0185_20070320_123918_raw.all.mb56.gz 16.47MB Simrad multibeam vendor format
0186_20070320_133919_raw.all.mb56.gz 14.78MB Simrad multibeam vendor format
0187_20070320_144152_raw.all.mb56.gz 15.66MB Simrad multibeam vendor format
0188_20070320_154152_raw.all.mb56.gz 16.19MB Simrad multibeam vendor format
0189_20070320_164153_raw.all.mb56.gz 16.42MB Simrad multibeam vendor format
0190_20070320_174153_raw.all.mb56.gz 17.85MB Simrad multibeam vendor format
0191_20070320_190943_raw.all.mb56.gz 5.19MB Simrad multibeam vendor format
0192_20070320_192307_raw.all.mb56.gz 3.20MB Simrad multibeam vendor format
0193_20070320_193414_raw.all.mb56.gz 14.96MB Simrad multibeam vendor format
0194_20070320_203153_raw.all.mb56.gz 17.73MB Simrad multibeam vendor format
0195_20070320_213154_raw.all.mb56.gz 5.92MB Simrad multibeam vendor format
0196_20070320_220701_raw.all.mb56.gz 16.11MB Simrad multibeam vendor format
0197_20070320_230701_raw.all.mb56.gz 2.93MB Simrad multibeam vendor format
0198_20070320_231839_raw.all.mb56.gz 15.25MB Simrad multibeam vendor format
0199_20070321_001839_raw.all.mb56.gz 16.07MB Simrad multibeam vendor format
0200_20070321_011840_raw.all.mb56.gz 10.49MB Simrad multibeam vendor format
0201_20070321_030143_raw.all.mb56.gz 23.92MB Simrad multibeam vendor format
0202_20070321_040143_raw.all.mb56.gz 19.38MB Simrad multibeam vendor format
0203_20070321_050144_raw.all.mb56.gz 20.85MB Simrad multibeam vendor format
0204_20070321_060144_raw.all.mb56.gz 9.17MB Simrad multibeam vendor format
0205_20070321_063102_raw.all.mb56.gz 20.39MB Simrad multibeam vendor format
0206_20070321_073103_raw.all.mb56.gz 20.08MB Simrad multibeam vendor format
0207_20070321_083103_raw.all.mb56.gz 19.93MB Simrad multibeam vendor format
0208_20070321_093103_raw.all.mb56.gz 17.20MB Simrad multibeam vendor format
0209_20070321_101703_raw.all.mb56.gz 5.86MB Simrad multibeam vendor format
0210_20070321_103301_raw.all.mb56.gz 32.09MB Simrad multibeam vendor format
0211_20070321_113301_raw.all.mb56.gz 1.94MB Simrad multibeam vendor format
0212_20070321_114349_raw.all.mb56.gz 21.97MB Simrad multibeam vendor format
0213_20070321_124350_raw.all.mb56.gz 1.73MB Simrad multibeam vendor format
0214_20070321_125546_raw.all.mb56.gz 26.57MB Simrad multibeam vendor format
0215_20070321_140742_raw.all.mb56.gz 26.16MB Simrad multibeam vendor format
0216_20070321_152125_raw.all.mb56.gz 28.22MB Simrad multibeam vendor format
0217_20070321_164859_raw.all.mb56.gz 31.39MB Simrad multibeam vendor format
0218_20070321_180720_raw.all.mb56.gz 10.49MB Simrad multibeam vendor format
0219_20070321_183523_raw.all.mb56.gz 37.81MB Simrad multibeam vendor format
0220_20070321_203031_raw.all.mb56.gz 20.09MB Simrad multibeam vendor format
0221_20070321_213032_raw.all.mb56.gz 16.55MB Simrad multibeam vendor format
0222_20070321_222408_raw.all.mb56.gz 20.28MB Simrad multibeam vendor format
0223_20070321_232408_raw.all.mb56.gz 19.81MB Simrad multibeam vendor format
0224_20070322_002409_raw.all.mb56.gz 17.81MB Simrad multibeam vendor format
0225_20070322_012409_raw.all.mb56.gz 18.11MB Simrad multibeam vendor format
0226_20070322_021344_raw.all.mb56.gz 20.88MB Simrad multibeam vendor format
0227_20070322_031344_raw.all.mb56.gz 17.39MB Simrad multibeam vendor format
0228_20070322_041345_raw.all.mb56.gz 18.55MB Simrad multibeam vendor format
0229_20070322_051345_raw.all.mb56.gz 24.05MB Simrad multibeam vendor format
0230_20070322_061307_raw.all.mb56.gz 21.35MB Simrad multibeam vendor format
0231_20070322_071308_raw.all.mb56.gz 18.09MB Simrad multibeam vendor format
0232_20070322_081308_raw.all.mb56.gz 16.66MB Simrad multibeam vendor format
0233_20070322_091309_raw.all.mb56.gz 15.16MB Simrad multibeam vendor format
0234_20070322_100522_raw.all.mb56.gz 17.89MB Simrad multibeam vendor format
0235_20070322_110523_raw.all.mb56.gz 17.21MB Simrad multibeam vendor format
0236_20070322_120523_raw.all.mb56.gz 17.85MB Simrad multibeam vendor format
0237_20070322_130523_raw.all.mb56.gz 8.15MB Simrad multibeam vendor format
0238_20070322_133507_raw.all.mb56.gz 20.68MB Simrad multibeam vendor format
0239_20070322_143507_raw.all.mb56.gz 15.87MB Simrad multibeam vendor format
0240_20070322_153508_raw.all.mb56.gz 16.79MB Simrad multibeam vendor format
0241_20070322_163508_raw.all.mb56.gz 7.54MB Simrad multibeam vendor format
0242_20070322_171055_raw.all.mb56.gz 0.61MB Simrad multibeam vendor format
0243_20070322_171326_raw.all.mb56.gz 11.86MB Simrad multibeam vendor format
0244_20070322_180028_raw.all.mb56.gz 16.98MB Simrad multibeam vendor format
0245_20070322_190028_raw.all.mb56.gz 16.69MB Simrad multibeam vendor format
0246_20070322_200028_raw.all.mb56.gz 14.03MB Simrad multibeam vendor format
0247_20070322_205421_raw.all.mb56.gz 18.74MB Simrad multibeam vendor format
0248_20070322_215422_raw.all.mb56.gz 16.98MB Simrad multibeam vendor format
0249_20070322_225422_raw.all.mb56.gz 14.52MB Simrad multibeam vendor format
0250_20070322_235423_raw.all.mb56.gz 2.56MB Simrad multibeam vendor format
0251_20070323_001314_raw.all.mb56.gz 14.03MB Simrad multibeam vendor format
0252_20070323_011314_raw.all.mb56.gz 18.15MB Simrad multibeam vendor format
0253_20070323_021314_raw.all.mb56.gz 14.64MB Simrad multibeam vendor format
0254_20070323_030516_raw.all.mb56.gz 18.54MB Simrad multibeam vendor format
0255_20070323_040517_raw.all.mb56.gz 15.79MB Simrad multibeam vendor format
0256_20070323_050517_raw.all.mb56.gz 10.79MB Simrad multibeam vendor format
0257_20070323_060647_raw.all.mb56.gz 12.92MB Simrad multibeam vendor format
0258_20070323_070647_raw.all.mb56.gz 15.41MB Simrad multibeam vendor format
0259_20070323_080648_raw.all.mb56.gz 15.78MB Simrad multibeam vendor format
0260_20070323_090648_raw.all.mb56.gz 2.98MB Simrad multibeam vendor format
0261_20070323_093119_raw.all.mb56.gz 268.8KB Simrad multibeam vendor format
0262_20070323_094959_raw.all.mb56.gz 16.01MB Simrad multibeam vendor format
0263_20070323_105000_raw.all.mb56.gz 15.42MB Simrad multibeam vendor format
0264_20070323_115000_raw.all.mb56.gz 12.22MB Simrad multibeam vendor format
0265_20070323_124428_raw.all.mb56.gz 2.91MB Simrad multibeam vendor format
0266_20070323_125624_raw.all.mb56.gz 2.90MB Simrad multibeam vendor format
0267_20070323_130729_raw.all.mb56.gz 9.51MB Simrad multibeam vendor format
0268_20070323_135514_raw.all.mb56.gz 9.08MB Simrad multibeam vendor format
0269_20070323_143941_raw.all.mb56.gz 18.47MB Simrad multibeam vendor format
0270_20070323_175924_raw.all.mb56.gz 17.84MB Simrad multibeam vendor format
0271_20070323_183649_raw.all.mb56.gz 9.55MB Simrad multibeam vendor format
0272_20070323_191936_raw.all.mb56.gz 21.18MB Simrad multibeam vendor format
0273_20070323_201936_raw.all.mb56.gz 8.33MB Simrad multibeam vendor format
0274_20070323_205955_raw.all.mb56.gz 29.14MB Simrad multibeam vendor format
0275_20070323_215955_raw.all.mb56.gz 6.03MB Simrad multibeam vendor format
0276_20070323_223620_raw.all.mb56.gz 33.09MB Simrad multibeam vendor format
0277_20070323_233620_raw.all.mb56.gz 16.90MB Simrad multibeam vendor format
0278_20070324_003621_raw.all.mb56.gz 6.37MB Simrad multibeam vendor format
0279_20070324_010620_raw.all.mb56.gz 14.75MB Simrad multibeam vendor format
0280_20070324_020621_raw.all.mb56.gz 16.20MB Simrad multibeam vendor format
0281_20070324_030621_raw.all.mb56.gz 15.23MB Simrad multibeam vendor format
0282_20070324_040621_raw.all.mb56.gz 14.29MB Simrad multibeam vendor format
0283_20070324_050255_raw.all.mb56.gz 16.21MB Simrad multibeam vendor format
0284_20070324_060255_raw.all.mb56.gz 15.25MB Simrad multibeam vendor format
0285_20070324_070256_raw.all.mb56.gz 16.70MB Simrad multibeam vendor format
0286_20070324_080256_raw.all.mb56.gz 11.02MB Simrad multibeam vendor format
0287_20070324_085235_raw.all.mb56.gz 10.30MB Simrad multibeam vendor format
0288_20070324_094043_raw.all.mb56.gz 13.24MB Simrad multibeam vendor format
0289_20070324_104624_raw.all.mb56.gz 14.26MB Simrad multibeam vendor format
0290_20070324_115202_raw.all.mb56.gz 14.53MB Simrad multibeam vendor format
0291_20070324_125203_raw.all.mb56.gz 1.55MB Simrad multibeam vendor format
0292_20070324_131439_raw.all.mb56.gz 7.01MB Simrad multibeam vendor format
0293_20070324_134711_raw.all.mb56.gz 253.3KB Simrad multibeam vendor format
0294_20070324_134815_raw.all.mb56.gz 0.62MB Simrad multibeam vendor format
0295_20070324_135108_raw.all.mb56.gz 438.6KB Simrad multibeam vendor format
0296_20070324_135426_raw.all.mb56.gz 5.90MB Simrad multibeam vendor format
0297_20070324_142225_raw.all.mb56.gz 15.26MB Simrad multibeam vendor format
0298_20070324_152225_raw.all.mb56.gz 8.17MB Simrad multibeam vendor format
0299_20070324_173221_raw.all.mb56.gz 13.40MB Simrad multibeam vendor format
0300_20070324_175722_raw.all.mb56.gz 8.95MB Simrad multibeam vendor format
0301_20070324_184536_raw.all.mb56.gz 6.43MB Simrad multibeam vendor format
0302_20070324_190102_raw.all.mb56.gz 7.28MB Simrad multibeam vendor format
0303_20070324_220738_raw.all.mb56.gz 35.79MB Simrad multibeam vendor format
0304_20070324_230738_raw.all.mb56.gz 20.03MB Simrad multibeam vendor format
0305_20070324_234625_raw.all.mb56.gz 20.08MB Simrad multibeam vendor format
0306_20070325_004625_raw.all.mb56.gz 9.79MB Simrad multibeam vendor format
0307_20070325_012729_raw.all.mb56.gz 14.80MB Simrad multibeam vendor format
0308_20070325_022729_raw.all.mb56.gz 6.67MB Simrad multibeam vendor format
0309_20070325_025347_raw.all.mb56.gz 19.21MB Simrad multibeam vendor format
0310_20070325_034844_raw.all.mb56.gz 4.38MB Simrad multibeam vendor format
0311_20070325_040521_raw.all.mb56.gz 17.76MB Simrad multibeam vendor format
0312_20070325_045817_raw.all.mb56.gz 19.56MB Simrad multibeam vendor format
0313_20070325_055817_raw.all.mb56.gz 17.00MB Simrad multibeam vendor format
0314_20070325_065817_raw.all.mb56.gz 15.24MB Simrad multibeam vendor format
0315_20070325_075818_raw.all.mb56.gz 2.27MB Simrad multibeam vendor format
0316_20070325_081220_raw.all.mb56.gz 13.98MB Simrad multibeam vendor format
0317_20070325_091221_raw.all.mb56.gz 1.69MB Simrad multibeam vendor format
0318_20070325_092321_raw.all.mb56.gz 6.55MB Simrad multibeam vendor format
0319_20070325_094242_raw.all.mb56.gz 22.56MB Simrad multibeam vendor format
0320_20070325_104242_raw.all.mb56.gz 25.67MB Simrad multibeam vendor format
0321_20070325_114114_raw.all.mb56.gz 10.28MB Simrad multibeam vendor format
0322_20070325_121337_raw.all.mb56.gz 26.67MB Simrad multibeam vendor format
0323_20070325_131337_raw.all.mb56.gz 4.19MB Simrad multibeam vendor format
0324_20070325_133220_raw.all.mb56.gz 17.37MB Simrad multibeam vendor format
0325_20070325_143220_raw.all.mb56.gz 18.17MB Simrad multibeam vendor format
0326_20070325_153220_raw.all.mb56.gz 5.45MB Simrad multibeam vendor format
0327_20070325_160059_raw.all.mb56.gz 16.86MB Simrad multibeam vendor format
0328_20070325_170059_raw.all.mb56.gz 24.70MB Simrad multibeam vendor format
0329_20070325_180100_raw.all.mb56.gz 6.07MB Simrad multibeam vendor format
0330_20070325_182300_raw.all.mb56.gz 11.34MB Simrad multibeam vendor format
0331_20070325_191041_raw.all.mb56.gz 16.48MB Simrad multibeam vendor format
0332_20070325_201041_raw.all.mb56.gz 17.73MB Simrad multibeam vendor format
0333_20070325_211042_raw.all.mb56.gz 14.20MB Simrad multibeam vendor format
0334_20070325_221042_raw.all.mb56.gz 4.82MB Simrad multibeam vendor format
0335_20070325_223444_raw.all.mb56.gz 14.46MB Simrad multibeam vendor format
0336_20070325_233444_raw.all.mb56.gz 15.97MB Simrad multibeam vendor format
0337_20070326_003445_raw.all.mb56.gz 17.70MB Simrad multibeam vendor format
0338_20070326_013445_raw.all.mb56.gz 5.55MB Simrad multibeam vendor format
0339_20070326_020538_raw.all.mb56.gz 14.96MB Simrad multibeam vendor format
0340_20070326_030538_raw.all.mb56.gz 19.25MB Simrad multibeam vendor format
0341_20070326_040538_raw.all.mb56.gz 14.78MB Simrad multibeam vendor format
0342_20070326_050539_raw.all.mb56.gz 10.65MB Simrad multibeam vendor format
0343_20070326_055107_raw.all.mb56.gz 15.46MB Simrad multibeam vendor format
0344_20070326_065107_raw.all.mb56.gz 15.21MB Simrad multibeam vendor format
0345_20070326_075107_raw.all.mb56.gz 17.66MB Simrad multibeam vendor format
0346_20070326_085108_raw.all.mb56.gz 14.23MB Simrad multibeam vendor format
0347_20070326_095108_raw.all.mb56.gz 5.79MB Simrad multibeam vendor format
0348_20070326_101648_raw.all.mb56.gz 13.41MB Simrad multibeam vendor format
0349_20070326_111649_raw.all.mb56.gz 5.44MB Simrad multibeam vendor format
0350_20070326_113607_raw.all.mb56.gz 13.02MB Simrad multibeam vendor format
0351_20070326_123607_raw.all.mb56.gz 2.95MB Simrad multibeam vendor format

Metadata Files: 5

Files File Size Description
NF-07-04-PMEL_Multibeam.xml NCEI created ISO metadata
NF-07-04-PMEL.xml 13.1KB XML metadata file
NF-07-04-PMEL_meta.html 19.1KB HTML metadata file
NF-07-04-PMEL_revision.pdf 11.9KB PDF metadata file
NF0704_cruise_instructions.pdf 1.59MB PDF metadata file

Ancillary Files: 2

Files File Size Description
svp.tar.gz 277.4KB Sound Speed Profiles (SSP or SVP)
tides.tar.gz 0.5KB Tidal data